7 * 24
多渠道服务支持
STARLINK-32737 是 SpaceX Starlink 卫星互联网项目中的第 32737 颗卫星。该卫星属于星链计划的低轨卫星群,旨在为全球提供高速互联网服务。它由 SpaceX 设计和发射,运行在近地轨道,具备先进通信技术,支持宽带连接。该卫星的部署有助于扩大 Starlink 在全球范围的覆盖,特别是在偏远和网络基础设施薄弱的地区。其发射和运行体现了 SpaceX 在商业航天和全球通信领域的领先地位。
美国
(US)
| 数据来源 | 国际轨道数据 |
| 星历时间: | 2025-11-06T17:27:27+0800 1天前 查看轨道信息 |
| 半长轴: | 6853.284km |
| 偏心率: | 0.0001019 |
| 轨道倾角: | 53.161° |
| 近地点辐角 | 72.970° |
| 升交点赤经 | 185.703° |
| 平近点角 | 287.141° |
| 近地点: | 474.45km |
| 远地点: | 475.848km |
| 周期: | 94.104分钟 |
| 每日圈数: | 15.302231 |